| time (UTC) | temp F | wind direction | speed MPH | gust MPH | rain 1hr in | rain 24hr in | rain mn in | humidity % | barometer mb |
| 20260505181521 | 84 | 108 | 3.0 | 5.0 | 0.00 | 0.00 | 0.00 | 68 | 1011.5 |
| 20260505180901 | 83 | 132 | 3.0 | 6.0 | 0.00 | 0.00 | 0.00 | 68 | 1008.4 |
| 20260505180523 | 84 | 132 | 4.0 | 7.0 | 0.00 | 0.00 | 0.00 | 69 | 1011.7 |
| 20260505175526 | 83 | 182 | 4.0 | 7.0 | 0.00 | 0.00 | 0.00 | 68 | 1011.7 |
| 20260505174522 | 82 | 152 | 4.0 | 6.0 | 0.00 | 0.00 | 0.00 | 70 | 1011.8 |
| 20260505173901 | 82 | 205 | 3.0 | 6.0 | 0.00 | 0.00 | 0.00 | 70 | 1009.0 |
| 20260505173518 | 82 | 205 | 4.0 | 6.0 | 0.00 | 0.00 | 0.00 | 70 | 1012.0 |
| 20260505172532 | 81 | 198 | 6.0 | 10.0 | 0.00 | 0.00 | 0.00 | 72 | 1012.0 |
| 20260505171516 | 80 | 209 | 4.0 | 7.0 | 0.00 | 0.00 | 0.00 | 74 | 1012.0 |
| 20260505170901 | 78 | 191 | 5.0 | 7.0 | 0.00 | 0.00 | 0.00 | 77 | 1009.6 |
| 20260505170518 | 78 | 192 | 5.0 | 7.0 | 0.00 | 0.00 | 0.00 | 77 | 1012.2 |
| 20260505165520 | 77 | 205 | 4.0 | 5.0 | 0.00 | 0.00 | 0.00 | 79 | 1011.9 |
| 20260505164542 | 77 | 142 | 5.0 | 6.0 | 0.00 | 0.00 | 0.00 | 80 | 1012.0 |
| 20260505163901 | 75 | 223 | 4.0 | 7.0 | 0.00 | 0.00 | 0.00 | 81 | 1009.7 |
| 20260505163525 | 76 | 224 | 4.0 | 7.0 | 0.00 | 0.00 | 0.00 | 81 | 1012.0 |
| 20260505162526 | 74 | 204 | 4.0 | 5.0 | 0.00 | 0.00 | 0.00 | 86 | 1012.0 |
| 20260505161529 | 73 | 185 | 5.0 | 8.0 | 0.00 | 0.00 | 0.00 | 86 | 1011.9 |
| 20260505160901 | 73 | 219 | 4.0 | 5.0 | 0.00 | 0.00 | 0.00 | 87 | 1009.9 |
| 20260505160531 | 73 | 219 | 4.0 | 6.0 | 0.00 | 0.00 | 0.00 | 87 | 1011.9 |
| 20260505152522 | 72 | 180 | 3.0 | 6.0 | 0.00 | 0.00 | 0.00 | 91 | 1011.9 |
| 20260505151524 | 70 | 170 | 4.0 | 7.0 | 0.00 | 0.00 | 0.00 | 93 | 1011.9 |
| 20260505150901 | 70 | 189 | 4.0 | 6.0 | 0.00 | 0.00 | 0.00 | 93 | 1010.4 |
| 20260505150520 | 70 | 189 | 4.0 | 7.0 | 0.00 | 0.00 | 0.00 | 93 | 1012.2 |
| 20260505140521 | 68 | 174 | 4.0 | 7.0 | 0.00 | 0.00 | 0.00 | 99 | 1011.7 |
| 20260505124518 | 68 | 180 | 4.0 | 7.0 | 0.00 | 0.00 | 0.00 | 99 | 1011.1 |
| 20260505123901 | 67 | 180 | 3.0 | 6.0 | 0.00 | 0.00 | 0.00 | 99 | 1009.4 |
| 20260505123541 | 68 | 181 | 4.0 | 6.0 | 0.00 | 0.00 | 0.00 | 99 | 1010.9 |
| 20260505122517 | 68 | 191 | 5.0 | 9.0 | 0.00 | 0.00 | 0.00 | 99 | 1010.8 |
| 20260505121525 | 68 | 199 | 5.0 | 7.0 | 0.00 | 0.00 | 0.00 | 99 | 1010.7 |
| 20260505120901 | 68 | 181 | 4.0 | 7.0 | 0.00 | 0.00 | 0.00 | 98 | 1009.2 |
| 20260505120527 | 68 | 182 | 5.0 | 7.0 | 0.00 | 0.00 | 0.00 | 98 | 1010.7 |
| 20260505115529 | 68 | 185 | 5.0 | 8.0 | 0.00 | 0.00 | 0.00 | 98 | 1010.7 |
| 20260505114532 | 68 | 153 | 4.0 | 6.0 | 0.00 | 0.00 | 0.00 | 97 | 1010.3 |
| 20260505113901 | 68 | 157 | 3.0 | 7.0 | 0.00 | 0.00 | 0.00 | 97 | 1008.8 |
| 20260505113613 | 68 | 157 | 4.0 | 7.0 | 0.00 | 0.00 | 0.00 | 97 | 1010.3 |
| 20260505112537 | 68 | 143 | 4.0 | 7.0 | 0.00 | 0.00 | 0.00 | 97 | 1010.3 |
| 20260505111519 | 68 | 203 | 4.0 | 7.0 | 0.00 | 0.00 | 0.00 | 97 | 1010.3 |
| 20260505110901 | 68 | 174 | 2.0 | 5.0 | 0.00 | 0.00 | 0.00 | 97 | 1008.9 |
| 20260505110521 | 68 | 174 | 3.0 | 6.0 | 0.00 | 0.00 | 0.00 | 97 | 1010.5 |
| 20260505101545 | 68 | 153 | 6.0 | 10.0 | 0.00 | 0.00 | 0.00 | 97 | 1010.5 |
| 20260505100901 | 68 | 168 | 3.0 | 7.0 | 0.00 | 0.00 | 0.00 | 97 | 1009.0 |
| 20260505100515 | 68 | 169 | 4.0 | 7.0 | 0.00 | 0.00 | 0.00 | 97 | 1010.6 |
| 20260505095538 | 69 | 155 | 4.0 | 9.0 | 0.00 | 0.00 | 0.00 | 96 | 1010.6 |
| 20260505094520 | 69 | 134 | 4.0 | 8.0 | 0.00 | 0.00 | 0.00 | 96 | 1010.8 |
| 20260505093901 | 68 | 189 | 5.0 | 8.0 | 0.00 | 0.00 | 0.00 | 96 | 1009.3 |
| 20260505093542 | 69 | 189 | 5.0 | 8.0 | 0.00 | 0.00 | 0.00 | 96 | 1010.9 |
| 20260505092544 | 69 | 172 | 3.0 | 5.0 | 0.00 | 0.00 | 0.00 | 96 | 1010.8 |
| 20260505091526 | 69 | 169 | 5.0 | 7.0 | 0.00 | 0.00 | 0.00 | 96 | 1010.8 |
| 20260505090901 | 68 | 165 | 3.0 | 6.0 | 0.00 | 0.00 | 0.00 | 95 | 1009.1 |
| 20260505090528 | 69 | 165 | 4.0 | 6.0 | 0.00 | 0.00 | 0.00 | 95 | 1010.7 |
| 20260505085530 | 69 | 179 | 5.0 | 6.0 | 0.00 | 0.00 | 0.00 | 95 | 1010.9 |
| 20260505084532 | 69 | 151 | 4.0 | 7.0 | 0.00 | 0.00 | 0.00 | 95 | 1010.9 |
| 20260505083901 | 68 | 155 | 5.0 | 6.0 | 0.00 | 0.00 | 0.00 | 95 | 1009.4 |
| 20260505083516 | 69 | 156 | 5.0 | 6.0 | 0.00 | 0.00 | 0.00 | 95 | 1011.0 |
| 20260505082518 | 69 | 150 | 5.0 | 9.0 | 0.00 | 0.00 | 0.00 | 94 | 1011.0 |
| 20260505081521 | 69 | 181 | 6.0 | 9.0 | 0.00 | 0.00 | 0.00 | 94 | 1011.1 |
| 20260505080901 | 68 | 178 | 5.0 | 8.0 | 0.00 | 0.00 | 0.00 | 94 | 1009.5 |
| 20260505080523 | 69 | 179 | 5.0 | 8.0 | 0.00 | 0.00 | 0.00 | 94 | 1011.1 |
| 20260505075525 | 69 | 181 | 6.0 | 9.0 | 0.00 | 0.00 | 0.00 | 94 | 1011.2 |
| 20260505074547 | 69 | 159 | 5.0 | 11.0 | 0.00 | 0.00 | 0.00 | 94 | 1011.4 |
| 20260505073901 | 68 | 171 | 5.0 | 9.0 | 0.00 | 0.00 | 0.00 | 94 | 1010.0 |
| 20260505073523 | 69 | 171 | 6.0 | 9.0 | 0.00 | 0.00 | 0.00 | 94 | 1011.7 |
| 20260505072519 | 69 | 145 | 4.0 | 8.0 | 0.00 | 0.00 | 0.00 | 94 | 1011.6 |
| 20260505071515 | 69 | 177 | 5.0 | 7.0 | 0.00 | 0.00 | 0.00 | 94 | 1011.5 |
| 20260505070901 | 68 | 170 | 4.0 | 7.0 | 0.00 | 0.00 | 0.00 | 94 | 1010.1 |
| 20260505070519 | 69 | 170 | 5.0 | 7.0 | 0.00 | 0.00 | 0.00 | 94 | 1011.7 |
| 20260505065520 | 69 | 139 | 5.0 | 9.0 | 0.00 | 0.00 | 0.00 | 94 | 1011.8 |
| 20260505064522 | 69 | 168 | 3.0 | 5.0 | 0.00 | 0.00 | 0.00 | 94 | 1012.0 |
| 20260505063901 | 68 | 158 | 3.0 | 6.0 | 0.00 | 0.00 | 0.00 | 94 | 1010.7 |
| 20260505063525 | 69 | 159 | 4.0 | 6.0 | 0.00 | 0.00 | 0.00 | 94 | 1012.2 |
| 20260505062547 | 69 | 177 | 4.0 | 6.0 | 0.00 | 0.00 | 0.00 | 94 | 1012.2 |
| 20260505061529 | 68 | 160 | 4.0 | 6.0 | 0.00 | 0.00 | 0.00 | 94 | 1012.2 |
| 20260505060901 | 68 | 184 | 2.0 | 4.0 | 0.00 | 0.00 | 0.00 | 93 | 1010.9 |
| 20260505060531 | 68 | 184 | 3.0 | 4.0 | 0.00 | 0.00 | 0.00 | 93 | 1012.4 |
| 20260505055515 | 68 | 148 | 2.0 | 4.0 | 0.00 | 0.00 | 0.00 | 93 | 1012.2 |
| 20260505054518 | 68 | 170 | 3.0 | 4.0 | 0.00 | 0.00 | 0.00 | 92 | 1012.4 |
| 20260505053901 | 68 | 174 | 2.0 | 4.0 | 0.00 | 0.00 | 0.00 | 90 | 1010.8 |
| 20260505053520 | 68 | 174 | 2.0 | 5.0 | 0.00 | 0.00 | 0.00 | 91 | 1012.4 |
| 20260505052522 | 69 | 150 | 2.0 | 3.0 | 0.00 | 0.00 | 0.00 | 90 | 1012.4 |
| 20260505051524 | 69 | 149 | 2.0 | 5.0 | 0.00 | 0.00 | 0.00 | 89 | 1012.4 |
| 20260505050901 | 69 | 150 | 2.0 | 5.0 | 0.00 | 0.00 | 0.00 | 88 | 1011.0 |
| 20260505050526 | 69 | 150 | 3.0 | 5.0 | 0.00 | 0.00 | 0.00 | 88 | 1012.6 |
| 20260505041552 | 70 | 168 | 3.0 | 4.0 | 0.00 | 0.00 | 0.00 | 84 | 1012.4 |
| 20260505040901 | 70 | 165 | 2.0 | 6.0 | 0.00 | 0.00 | 0.00 | 84 | 1010.6 |
| 20260505040516 | 71 | 166 | 2.0 | 7.0 | 0.00 | 0.00 | 0.00 | 84 | 1012.4 |
| 20260505035518 | 71 | 184 | 2.0 | 4.0 | 0.00 | 0.00 | 0.00 | 84 | 1012.4 |
| 20260505034520 | 71 | 164 | 3.0 | 6.0 | 0.00 | 0.00 | 0.00 | 84 | 1012.2 |
| 20260505033901 | 70 | 153 | 2.0 | 7.0 | 0.00 | 0.00 | 0.00 | 84 | 1010.4 |
| 20260505033522 | 71 | 154 | 3.0 | 7.0 | 0.00 | 0.00 | 0.00 | 84 | 1012.2 |
| 20260505032525 | 71 | 198 | 3.0 | 5.0 | 0.00 | 0.00 | 0.00 | 84 | 1012.1 |
| 20260505031526 | 71 | 179 | 3.0 | 5.0 | 0.00 | 0.00 | 0.00 | 83 | 1012.0 |
| 20260505030901 | 71 | 168 | 3.0 | 6.0 | 0.00 | 0.00 | 0.00 | 83 | 1010.2 |
| 20260505030549 | 71 | 168 | 4.0 | 7.0 | 0.00 | 0.00 | 0.00 | 83 | 1012.0 |
| 20260505025531 | 72 | 156 | 5.0 | 8.0 | 0.00 | 0.00 | 0.00 | 82 | 1012.2 |
| 20260505024555 | 72 | 154 | 4.0 | 6.0 | 0.00 | 0.00 | 0.00 | 82 | 1012.2 |
| 20260505023901 | 72 | 177 | 3.0 | 5.0 | 0.00 | 0.00 | 0.00 | 81 | 1010.1 |
| 20260505023517 | 72 | 178 | 3.0 | 5.0 | 0.00 | 0.00 | 0.00 | 81 | 1012.1 |
| 20260505022519 | 72 | 164 | 4.0 | 6.0 | 0.00 | 0.00 | 0.00 | 80 | 1012.1 |
| 20260505021542 | 73 | 160 | 4.0 | 7.0 | 0.00 | 0.00 | 0.00 | 79 | 1012.2 |
| 20260505020901 | 72 | 184 | 2.0 | 3.0 | 0.00 | 0.00 | 0.00 | 78 | 1010.1 |
| 20260505020517 | 73 | 185 | 3.0 | 4.0 | 0.00 | 0.00 | 0.00 | 79 | 1012.2 |
| 20260505015546 | 73 | 191 | 4.0 | 7.0 | 0.00 | 0.00 | 0.00 | 78 | 1012.0 |
| 20260505014528 | 74 | 180 | 3.0 | 6.0 | 0.00 | 0.00 | 0.00 | 77 | 1012.2 |
| 20260505013901 | 74 | 176 | 4.0 | 6.0 | 0.00 | 0.00 | 0.00 | 75 | 1010.0 |
| 20260505013531 | 74 | 177 | 4.0 | 7.0 | 0.00 | 0.00 | 0.00 | 76 | 1012.2 |
| 20260505012533 | 75 | 176 | 3.0 | 7.0 | 0.00 | 0.00 | 0.00 | 75 | 1012.1 |
| 20260505011517 | 75 | 176 | 5.0 | 7.0 | 0.00 | 0.00 | 0.00 | 74 | 1012.0 |
| 20260505010901 | 75 | 155 | 4.0 | 6.0 | 0.00 | 0.00 | 0.00 | 72 | 1009.8 |
| 20260505010519 | 76 | 155 | 4.0 | 7.0 | 0.00 | 0.00 | 0.00 | 72 | 1012.2 |
| 20260505005520 | 76 | 191 | 6.0 | 8.0 | 0.00 | 0.00 | 0.00 | 71 | 1012.2 |
| 20260505004518 | 77 | 181 | 5.0 | 11.0 | 0.00 | 0.00 | 0.00 | 70 | 1012.2 |
| 20260505003901 | 77 | 171 | 4.0 | 6.0 | 0.00 | 0.00 | 0.00 | 69 | 1009.7 |
| 20260505003520 | 77 | 171 | 5.0 | 7.0 | 0.00 | 0.00 | 0.00 | 69 | 1012.2 |
| 20260505002522 | 78 | 169 | 7.0 | 10.0 | 0.00 | 0.00 | 0.00 | 68 | 1012.3 |
| 20260505001524 | 79 | 209 | 6.0 | 13.0 | 0.00 | 0.00 | 0.00 | 67 | 1012.4 |
| 20260505000901 | 80 | 153 | 5.0 | 10.0 | 0.00 | 0.00 | 0.00 | 64 | 1009.3 |
| 20260505000526 | 80 | 153 | 6.0 | 10.0 | 0.00 | 0.00 | 0.00 | 64 | 1012.2 |
| 20260504235528 | 80 | 168 | 6.0 | 8.0 | 0.00 | 0.00 | 0.00 | 65 | 1012.2 |
| 20260504234524 | 80 | 156 | 7.0 | 10.0 | 0.00 | 0.00 | 0.00 | 64 | 1012.0 |
| 20260504233901 | 81 | 171 | 5.0 | 9.0 | 0.00 | 0.00 | 0.00 | 62 | 1009.2 |
| 20260504233520 | 82 | 172 | 5.0 | 9.0 | 0.00 | 0.00 | 0.00 | 62 | 1012.2 |
| 20260504232516 | 82 | 161 | 6.0 | 9.0 | 0.00 | 0.00 | 0.00 | 61 | 1012.1 |
| 20260504230901 | 80 | 153 | 8.0 | 11.0 | 0.00 | 0.00 | 0.00 | 62 | 1009.3 |
| 20260504230520 | 81 | 154 | 9.0 | 12.0 | 0.00 | 0.00 | 0.00 | 63 | 1012.2 |
| 20260504225602 | 82 | 194 | 7.0 | 13.0 | 0.00 | 0.00 | 0.00 | 62 | 1012.4 |
| 20260504224525 | 82 | 166 | 4.0 | 9.0 | 0.00 | 0.00 | 0.00 | 62 | 1012.6 |
| 20260504223901 | 81 | 167 | 4.0 | 7.0 | 0.00 | 0.00 | 0.00 | 62 | 1009.6 |
| 20260504223527 | 82 | 167 | 5.0 | 8.0 | 0.00 | 0.00 | 0.00 | 63 | 1012.6 |
| 20260504222529 | 81 | 168 | 7.0 | 11.0 | 0.00 | 0.00 | 0.00 | 62 | 1012.6 |
| 20260504221532 | 82 | 169 | 6.0 | 12.0 | 0.00 | 0.00 | 0.00 | 61 | 1012.7 |
| 20260504220901 | 81 | 167 | 6.0 | 9.0 | 0.00 | 0.00 | 0.00 | 61 | 1009.9 |
| 20260504220536 | 82 | 167 | 6.0 | 9.0 | 0.00 | 0.00 | 0.00 | 62 | 1012.9 |
| 20260504215518 | 82 | 145 | 6.0 | 12.0 | 0.00 | 0.00 | 0.00 | 62 | 1013.0 |
| 20260504214520 | 81 | 182 | 6.0 | 10.0 | 0.00 | 0.00 | 0.00 | 62 | 1013.3 |
| 20260504213901 | 81 | 177 | 6.0 | 11.0 | 0.00 | 0.00 | 0.00 | 61 | 1010.5 |
| 20260504213523 | 81 | 178 | 6.0 | 12.0 | 0.00 | 0.00 | 0.00 | 62 | 1013.4 |
| 20260504212525 | 81 | 197 | 6.0 | 13.0 | 0.00 | 0.00 | 0.00 | 63 | 1013.4 |
| 20260504211527 | 81 | 139 | 7.0 | 10.0 | 0.00 | 0.00 | 0.00 | 62 | 1013.3 |
| 20260504210901 | 81 | 165 | 5.0 | 11.0 | 0.00 | 0.00 | 0.00 | 62 | 1010.5 |
| 20260504210523 | 82 | 165 | 6.0 | 11.0 | 0.00 | 0.00 | 0.00 | 62 | 1013.5 |
| 20260504205519 | 80 | 204 | 7.0 | 15.0 | 0.00 | 0.00 | 0.00 | 64 | 1013.9 |
| 20260504204515 | 81 | 183 | 8.0 | 15.0 | 0.00 | 0.00 | 0.00 | 62 | 1014.1 |
| 20260504203901 | 83 | 187 | 7.0 | 13.0 | 0.00 | 0.00 | 0.00 | 59 | 1011.0 |
| 20260504203517 | 83 | 188 | 8.0 | 14.0 | 0.00 | 0.00 | 0.00 | 60 | 1014.1 |
| 20260504202520 | 82 | 190 | 7.0 | 10.0 | 0.00 | 0.00 | 0.00 | 61 | 1014.3 |
| 20260504201521 | 81 | 173 | 7.0 | 10.0 | 0.00 | 0.00 | 0.00 | 62 | 1014.5 |
| 20260504200901 | 81 | 167 | 5.0 | 9.0 | 0.00 | 0.00 | 0.00 | 62 | 1011.8 |
| 20260504200524 | 81 | 168 | 6.0 | 10.0 | 0.00 | 0.00 | 0.00 | 62 | 1014.7 |
| 20260504195526 | 81 | 165 | 8.0 | 13.0 | 0.00 | 0.00 | 0.00 | 61 | 1014.8 |
| 20260504194528 | 81 | 167 | 7.0 | 11.0 | 0.00 | 0.00 | 0.00 | 62 | 1015.0 |
| 20260504193901 | 81 | 157 | 8.0 | 12.0 | 0.00 | 0.00 | 0.00 | 62 | 1012.1 |
| 20260504193531 | 81 | 157 | 8.0 | 12.0 | 0.00 | 0.00 | 0.00 | 62 | 1015.1 |
| 20260504192553 | 81 | 156 | 7.0 | 11.0 | 0.00 | 0.00 | 0.00 | 63 | 1015.0 |
| 20260504191517 | 81 | 191 | 8.0 | 13.0 | 0.00 | 0.00 | 0.00 | 62 | 1015.0 |
| 20260504190901 | 79 | 165 | 7.0 | 12.0 | 0.00 | 0.00 | 0.00 | 63 | 1012.6 |
| 20260504190519 | 80 | 166 | 7.0 | 13.0 | 0.00 | 0.00 | 0.00 | 64 | 1015.3 |
| 20260504185521 | 81 | 159 | 7.0 | 12.0 | 0.00 | 0.00 | 0.00 | 62 | 1015.3 |
| 20260504184523 | 80 | 193 | 6.0 | 12.0 | 0.00 | 0.00 | 0.00 | 64 | 1015.4 |
| 20260504183901 | 79 | 172 | 7.0 | 12.0 | 0.00 | 0.00 | 0.00 | 64 | 1012.9 |
| 20260504183525 | 80 | 173 | 8.0 | 12.0 | 0.00 | 0.00 | 0.00 | 64 | 1015.5 |
| 20260504182522 | 79 | 153 | 7.0 | 10.0 | 0.00 | 0.00 | 0.00 | 66 | 1015.7 |